FW3816 Weather Reports


time (UTC)temp
C
wind
direction
speed
KPH
gust
KPH
rain 1hr
cm
rain 24hr
cm
rain mn
cm
humidity
%
barometer
mb
20260502151530 10 69 4.8 12.9 0.00 0.00 0.00 41 1019.4
20260502123040 1 294 6.4 11.3 0.00 0.00 0.00 63 1019.6
20260502121522 1 291 4.8 8.0 0.00 0.00 0.00 65 1019.6
20260502114519 1 285 8.0 12.9 0.00 0.00 0.00 62 1019.4
20260502113015 1 280 8.0 11.3 0.00 0.00 0.00 61 1019.5
20260502111515 1 298 9.7 14.5 0.00 0.00 0.00 61 1019.7
20260502110013 1 291 6.4 11.3 0.00 0.00 0.00 63 1019.7
20260502104511 2 301 4.8 11.3 0.00 0.00 0.00 59 1019.7
20260502103012 2 297 4.8 8.0 0.00 0.00 0.00 60 1019.7
20260502101507 3 296 6.4 11.3 0.00 0.00 0.00 57 1019.8
20260502091503 3 277 8.0 12.9 0.00 0.00 0.00 58 1019.8
20260502070050 4 290 8.0 11.3 0.00 0.00 0.00 56 1020.5
20260502064551 5 299 9.7 14.5 0.00 0.00 0.00 54 1020.5
20260502063057 5 296 8.0 14.5 0.00 0.00 0.00 54 1020.5
20260502061546 5 290 8.0 12.9 0.00 0.00 0.00 58 1020.6
20260502060146 5 296 3.2 8.0 0.00 0.00 0.00 54 1020.5
20260502054545 5 302 4.8 8.0 0.00 0.00 0.00 56 1020.6
20260502053015 6 271 4.8 11.3 0.00 0.00 0.00 56 1020.5
20260502051522 6 286 1.6 6.4 0.00 0.00 0.00 53 1020.5
20260502050028 7 274 6.4 11.3 0.00 0.00 0.00 48 1020.6
20260502044512 7 239 0.0 3.2 0.00 0.00 0.00 39 1020.6
20260502043010 8 84 0.0 0.0 0.00 0.00 0.00 39 1020.5
20260502041513 8 110 0.0 0.0 0.00 0.00 0.00 40 1020.7
20260502040012 8 111 0.0 0.0 0.00 0.00 0.00 38 1020.6
20260502034511 9 111 0.0 1.6 0.00 0.00 0.00 35 1020.5
20260502033015 9 82 1.6 3.2 0.00 0.00 0.00 37 1020.3
20260502031506 10 92 0.0 1.6 0.00 0.00 0.00 35 1020.2
20260502030015 10 91 0.0 4.8 0.00 0.00 0.00 35 1020.1
20260502024502 11 132 3.2 6.4 0.00 0.00 0.00 30 1019.8
20260502023002 12 158 3.2 6.4 0.00 0.00 0.00 29 1019.6
20260502021606 13 133 3.2 9.7 0.00 0.00 0.00 28 1019.4
20260502020100 13 125 3.2 9.7 0.00 0.00 0.00 27 1019.4
20260502014557 15 115 3.2 11.3 0.00 0.00 0.00 25 1019.2
20260502013055 15 156 8.0 12.9 0.00 0.00 0.00 23 1019.0
20260502011554 15 148 4.8 14.5 0.00 0.00 0.00 22 1019.0
20260502004603 16 84 11.3 17.7 0.00 0.00 0.00 21 1019.1
20260502003049 16 87 3.2 11.3 0.00 0.00 0.00 19 1019.1
20260502001547 16 84 12.9 22.5 0.00 0.00 0.00 20 1019.1
20260502000050 17 86 1.6 16.1 0.00 0.00 0.00 17 1019.1
20260501234515 16 92 11.3 20.9 0.00 0.00 0.00 19 1019.2
20260501233014 16 106 4.8 19.3 0.00 0.00 0.00 17 1019.3
20260501231516 16 96 4.8 11.3 0.00 0.00 0.00 20 1019.5
20260501230007 16 279 0.0 6.4 0.00 0.00 0.00 22 1019.4
20260501224505 15 116 8.0 17.7 0.00 0.00 0.00 22 1019.4
20260501223008 16 107 3.2 16.1 0.00 0.00 0.00 22 1019.6
20260501221600 15 39 6.4 19.3 0.00 0.00 0.00 21 1019.8
20260501220104 15 71 11.3 20.9 0.00 0.00 0.00 23 1019.9
20260501214556 15 88 3.2 16.1 0.00 0.00 0.00 21 1020.1
20260501213056 15 26 4.8 14.5 0.00 0.00 0.00 22 1020.5
20260501211558 15 138 6.4 17.7 0.00 0.00 0.00 23 1020.8
20260501210051 15 100 8.0 24.1 0.00 0.00 0.00 24 1020.9
20260501204546 15 47 9.7 22.5 0.00 0.00 0.00 24 1021.0
20260501203045 15 80 12.9 24.1 0.00 0.00 0.00 24 1021.0
20260501201542 15 108 4.8 19.3 0.00 0.00 0.00 25 1021.1
20260501200040 15 118 4.8 12.9 0.00 0.00 0.00 24 1021.1
20260501194540 15 19 11.3 24.1 0.00 0.00 0.00 26 1021.2
20260501193037 15 114 3.2 14.5 0.00 0.00 0.00 23 1021.2
20260501191534 14 139 3.2 14.5 0.00 0.00 0.00 27 1021.4
20260501190032 14 111 4.8 16.1 0.00 0.00 0.00 26 1021.4
20260501184530 14 251 1.6 16.1 0.00 0.00 0.00 26 1021.5
20260501183029 13 105 1.6 12.9 0.00 0.00 0.00 28 1021.8
20260501181559 13 73 3.2 16.1 0.00 0.00 0.00 26 1022.0
20260501180112 13 126 1.6 8.0 0.00 0.00 0.00 27 1022.0
20260501174549 13 62 3.2 9.7 0.00 0.00 0.00 27 1022.1
20260501173049 12 218 4.8 19.3 0.00 0.00 0.00 28 1022.2
20260501171544 12 117 1.6 20.9 0.00 0.00 0.00 27 1022.3
20260501170050 11 50 0.0 9.7 0.00 0.00 0.00 28 1022.4
20260501164610 11 71 6.4 11.3 0.00 0.00 0.00 29 1022.4
20260501163007 11 44 1.6 14.5 0.00 0.00 0.00 31 1022.6
20260501161507 11 76 0.0 9.7 0.00 0.00 0.00 30 1022.6